Temp
65 65 65 65 64 64 64 64 64 64 64 64 64 64 64 64 64 61 61 70 69 71 71 68 67 65 65 62 61 59 51 48 51 52 55 55 58 58 61 62 60 63 63 64 64
65 65 65 65 64 64 64 64 64 63 63 63 63 63 64 63 60 60 70 73 72 70 67 66 62 63 60 59 59 56 50 53 56 56 55 56 58 60 60 58 59 60 62 60 63
64 64 64 64 64 63 63 63 63 62 62 62 63 63 63 60 57 62 71 72 71 70 66 66 65 63 57 57 55 53 53 55 57 58 59 57 57 59 59 55 61 62 62 59 61
63 64 64 63 63 64 63 63 62 62 62 62 62 62 62 56 49 62 70 71 71 68 67 64 62 58 53 55 56 55 55 56 58 58 57 57 58 56 57 62 61 62 62 59 60
62 62 63 62 62 63 63 63 62 62 62 62 62 62 57 51 57 63 68 69 66 66 64 61 58 57 54 55 56 53 55 56 55 57 55 57 54 56 58 62 60 59 58 59 61
61 61 61 61 62 62 62 62 62 62 62 62 62 62 53 49 62 64 64 63 64 63 61 62 61 60 56 54 53 56 54 54 55 55 54 54 52 53 58 58 57 58 57 57 60
61 61 61 61 62 62 62 62 62 61 61 62 63 60 51 55 60 61 64 61 63 63 60 61 62 59 57 53 55 54 51 53 53 53 53 53 52 53 57 55 56 57 57 56 57
61 60 61 61 61 61 61 61 61 61 61 62 63 54 51 59 59 61 61 60 62 63 63 63 63 59 56 55 53 49 49 46 50 53 51 53 47 55 54 53 58 56 55 54 56
60 60 60 60 60 60 60 61 60 61 62 62 51 50 49 61 56 59 59 60 60 60 61 65 60 53 53 49 45 45 40 42 49 51 49 50 48 53 52 52 53 54 54 55 55
59 60 60 60 60 60 60 60 60 60 59 59 59 46 51 52 55 58 56 60 57 57 57 56 50 45 44 44 39 40 41 41 43 47 46 43 47 51 53 51 53 53 54 54 54
59 59 60 60 59 60 59 54 49 46 47 47 47 48 50 53 57 54 56 57 55 53 45 46 44 40 45 47 46 46 43 43 44 47 45 45 45 50 51 51 52 52 54 55 55
59 59 59 59 60 60 54 47 51 55 45 52 50 50 53 54 50 51 57 52 49 43 44 43 38 46 49 48 46 43 42 41 45 46 46 43 45 49 50 51 54 57 55 55 56
58 58 59 59 60 57 49 52 58 57 48 48 50 50 52 54 49 50 55 49 44 40 41 39 43 47 47 44 44 41 41 41 44 43 42 41 41 45 49 48 51 53 54 54 55
58 58 58 59 54 55 50 56 58 57 40 43 45 51 52 53 47 54 55 51 42 41 41 41 43 43 41 41 44 37 46 45 43 41 36 39 34 40 46 47 49 53 53 53 53
58 58 58 59 52 50 54 58 58 56 24 47 44 55 50 50 48 47 52 50 42 42 43 40 41 41 40 43 46 43 44 44 41 37 34 34 35 39 40 46 53 53 51 51 51
58 58 58 55 52 55 57 57 53 35 21 38 43 43 43 45 43 47 48 51 48 42 40 40 41 43 44 42 45 43 42 39 36 36 30 35 38 35 42 47 47 49 49 49 48
57 57 57 58 50 57 58 49 32 26 40 35 36 39 42 39 41 43 43 40 39 34 33 36 37 40 44 40 42 40 39 30 29 27 29 32 33 39 46 48 48 50 49 48 47
57 56 56 57 57 58 53 40 27 30 33 39 39 40 37 41 39 42 41 40 42 39 34 33 30 39 43 43 39 38 40 31 23 24 30 33 31 40 45 47 48 47 47 47 46
54 55 53 54 58 58 45 31 32 31 40 37 39 35 35 40 38 39 40 42 46 42 40 34 36 39 42 44 47 39 36 40 30 16 24 31 35 43 45 45 45 46 45 47 46
48 48 48 55 57 52 40 35 35 41 42 41 34 37 33 35 36 37 37 42 41 43 43 41 34 37 40 45 43 43 45 35 30 19 19 29 31 39 41 45 45 46 44 44 44
45 43 48 55 53 44 33 35 38 43 45 42 38 34 36 35 38 37 38 43 46 42 47 43 40 33 39 38 37 38 37 37 37 33 25 21 32 39 46 45 44 44 45 44 44
43 36 48 52 38 38 34 41 44 41 43 42 42 40 37 39 37 37 37 41 45 46 44 44 39 30 34 36 38 39 41 40 35 28 28 28 36 41 42 44 44 44 45 44 44
36 38 47 47 30 32 37 40 43 41 42 41 39 41 42 40 36 39 39 43 43 46 44 44 32 22 28 32 33 34 35 38 37 34 28 27 38 38 39 41 42 44 44 44 42
36 33 38 40 38 37 36 37 38 44 43 44 42 43 40 39 41 37 38 40 43 43 46 49 34 36 32 33 36 33 35 40 42 30 36 34 40 36 38 40 41 43 43 43 43
34 32 33 31 33 36 38 39 37 37 43 45 40 42 41 36 39 37 39 40 41 44 42 43 33 34 34 34 35 33 35 39 39 43 35 43 39 40 41 41 43 43 43 42 42
33 32 34 33 38 36 36 33 36 38 39 37 37 41 41 37 39 37 41 39 39 40 40 40 32 32 29 35 36 33 34 37 41 42 42 42 39 45 46 41 40 43 42 41 40
37 38 35 31 34 34 34 35 36 39 40 42 41 40 39 41 43 42 44 44 42 39 37 36 33 32 31 33 32 30 36 34 34 36 40 36 44 43 40 41 41 41 40 40 40
MSLP
1012.50 1012.63 1012.99 1013.59 1013.84 1014.28 1014.53 1014.47 1014.75 1014.92 1015.28 1015.61 1015.66 1015.65 1016.06 1015.65 1015.68 1015.91 1015.26 1014.00 1014.02 1014.12 1014.10 1014.50 1014.36 1014.77 1014.99 1015.77 1016.05 1016.40 1017.40 1018.37 1018.27 1018.27 1017.79 1018.08 1018.20 1018.29 1018.06 1018.34 1018.84 1018.82 1019.01 1019.25 1019.65
1011.87 1012.60 1012.54 1013.32 1013.64 1014.10 1014.33 1014.42 1014.80 1014.84 1015.11 1015.56 1015.73 1015.73 1015.92 1015.57 1015.41 1014.79 1013.72 1013.63 1013.54 1013.84 1014.16 1014.37 1014.74 1014.93 1015.27 1015.94 1016.22 1016.60 1017.52 1017.60 1017.48 1017.45 1017.62 1017.87 1017.99 1018.04 1018.26 1018.32 1018.53 1018.97 1019.27 1019.42 1019.77
1011.76 1012.20 1012.50 1013.25 1013.42 1013.92 1014.02 1014.21 1014.63 1014.86 1015.07 1015.40 1015.75 1015.50 1015.37 1015.68 1015.53 1013.76 1013.34 1013.18 1013.27 1013.67 1014.00 1014.16 1014.66 1014.88 1015.38 1015.59 1016.21 1016.75 1017.04 1017.13 1016.96 1017.12 1017.20 1017.85 1018.00 1018.07 1018.12 1018.37 1017.93 1018.31 1019.10 1019.66 1019.98
1011.23 1011.92 1012.35 1013.10 1013.35 1013.76 1013.90 1014.14 1014.55 1014.85 1015.05 1015.23 1015.57 1015.65 1015.49 1015.79 1015.34 1013.35 1013.30 1013.30 1013.54 1013.65 1014.12 1014.32 1014.82 1015.24 1015.55 1015.79 1016.15 1016.60 1016.77 1016.89 1016.90 1017.01 1017.31 1017.68 1017.96 1018.03 1018.26 1017.63 1017.64 1017.93 1018.46 1019.37 1019.83
1010.91 1011.64 1012.31 1012.96 1013.44 1013.41 1013.63 1014.12 1014.37 1014.73 1014.88 1015.09 1015.22 1015.23 1015.31 1015.48 1014.48 1013.76 1013.44 1013.40 1013.57 1013.73 1014.11 1014.49 1014.69 1015.15 1015.69 1015.93 1016.35 1016.46 1016.62 1017.01 1017.01 1017.05 1017.45 1017.57 1018.00 1017.89 1017.79 1017.60 1017.81 1018.29 1018.65 1018.95 1019.25
1010.73 1011.34 1011.87 1012.64 1012.98 1013.31 1013.64 1014.36 1014.30 1014.64 1014.81 1015.04 1015.10 1015.25 1015.36 1015.07 1013.83 1013.56 1013.61 1013.81 1013.92 1013.91 1014.22 1014.29 1014.67 1014.89 1015.83 1016.18 1016.62 1016.55 1016.87 1017.04 1017.16 1017.29 1017.62 1017.75 1018.33 1018.23 1017.44 1017.63 1017.80 1018.45 1018.67 1018.91 1019.17
1010.29 1011.04 1011.78 1012.45 1012.72 1013.27 1013.56 1014.09 1014.29 1014.73 1014.72 1014.82 1015.20 1015.04 1015.22 1014.17 1013.77 1013.81 1013.84 1013.84 1013.87 1013.81 1014.20 1014.28 1014.43 1015.03 1015.80 1016.47 1016.78 1016.99 1017.54 1017.20 1017.49 1017.55 1017.79 1017.84 1018.21 1018.09 1017.62 1017.91 1018.14 1018.52 1018.69 1018.91 1019.00
1009.96 1010.77 1011.46 1012.08 1012.47 1013.34 1013.75 1013.93 1014.34 1014.57 1014.50 1014.92 1015.13 1015.28 1014.90 1013.93 1013.92 1013.81 1013.94 1014.25 1014.14 1014.11 1014.22 1014.33 1014.50 1015.42 1016.16 1016.89 1017.30 1017.71 1017.98 1018.02 1018.00 1017.90 1018.32 1018.24 1018.32 1017.62 1017.90 1018.25 1018.37 1018.60 1018.80 1018.75 1018.82
1009.72 1010.59 1011.24 1011.92 1012.40 1013.08 1013.77 1014.04 1014.29 1014.80 1014.91 1014.80 1015.33 1015.26 1014.46 1013.88 1013.95 1013.95 1013.95 1014.23 1014.41 1014.44 1014.64 1014.68 1014.92 1016.37 1017.08 1017.70 1018.55 1018.82 1018.77 1018.46 1018.23 1018.46 1018.64 1018.72 1018.71 1017.97 1017.85 1018.34 1018.68 1018.73 1018.71 1018.42 1018.38
1009.52 1010.30 1011.10 1011.72 1012.36 1013.01 1013.60 1014.07 1014.42 1014.83 1015.16 1014.84 1015.23 1015.77 1014.61 1013.81 1014.08 1013.99 1014.02 1014.20 1014.56 1014.72 1015.22 1015.54 1016.36 1017.20 1018.01 1018.36 1018.60 1019.16 1018.99 1018.66 1018.91 1018.90 1018.99 1019.37 1018.83 1018.45 1018.17 1018.40 1018.58 1018.68 1018.53 1018.33 1018.10
1008.53 1009.69 1010.55 1011.21 1011.89 1012.92 1013.33 1014.38 1014.99 1015.22 1015.01 1014.33 1014.60 1014.44 1014.20 1014.01 1013.87 1014.09 1014.22 1014.22 1014.84 1015.42 1016.37 1016.68 1017.20 1017.57 1018.00 1018.43 1018.35 1018.72 1019.09 1019.01 1018.83 1018.86 1019.45 1019.44 1019.28 1018.12 1018.37 1018.37 1018.04 1018.12 1018.04 1017.80 1017.47
1008.57 1009.40 1010.21 1010.81 1011.68 1012.69 1013.08 1013.35 1012.83 1012.46 1013.92 1014.42 1014.66 1014.45 1014.07 1014.06 1014.33 1014.45 1014.22 1014.61 1015.34 1016.40 1016.91 1017.59 1017.81 1017.86 1017.80 1018.31 1018.77 1018.84 1019.16 1019.29 1019.06 1019.46 1019.84 1019.61 1019.27 1018.47 1017.88 1017.59 1017.09 1016.98 1017.10 1017.01 1016.72
1008.02 1008.92 1009.72 1010.68 1011.66 1012.55 1013.09 1012.82 1012.15 1011.94 1012.95 1014.04 1014.23 1013.90 1013.70 1013.92 1014.15 1014.33 1014.69 1014.80 1015.76 1016.76 1017.25 1017.64 1017.56 1017.75 1017.82 1018.63 1019.08 1019.05 1019.24 1019.39 1019.53 1020.19 1020.30 1020.23 1019.56 1018.48 1017.13 1016.96 1016.59 1016.02 1016.09 1016.39 1016.70
1007.32 1008.45 1009.52 1010.56 1012.30 1012.36 1012.99 1012.63 1012.19 1011.96 1013.16 1013.75 1013.89 1012.81 1013.38 1013.77 1014.41 1014.09 1014.32 1014.72 1016.10 1016.90 1017.78 1017.86 1017.73 1018.12 1018.19 1018.60 1018.87 1019.34 1019.09 1019.36 1020.01 1020.75 1021.19 1021.09 1020.48 1018.67 1017.63 1017.12 1016.33 1015.26 1015.85 1016.13 1016.40
1007.01 1008.04 1008.93 1009.58 1010.71 1011.70 1011.86 1012.08 1011.79 1011.86 1013.55 1012.45 1012.61 1012.04 1012.39 1013.36 1014.07 1014.45 1014.29 1014.69 1015.66 1016.46 1017.46 1017.50 1017.64 1018.10 1018.22 1018.02 1018.47 1019.12 1019.43 1020.19 1020.68 1021.35 1021.60 1021.65 1021.48 1018.45 1017.89 1017.09 1015.61 1015.01 1015.68 1016.02 1016.35
1006.53 1007.51 1008.34 1009.51 1010.14 1010.87 1011.05 1011.65 1012.15 1013.94 1013.57 1012.27 1012.26 1012.55 1013.11 1013.44 1014.30 1014.72 1014.59 1014.73 1015.51 1016.56 1016.99 1017.50 1017.51 1017.36 1017.25 1018.18 1018.56 1019.31 1020.09 1021.13 1021.81 1022.27 1022.46 1021.51 1021.32 1018.10 1017.47 1016.04 1015.40 1015.14 1015.55 1016.01 1016.45
1006.00 1006.65 1007.35 1008.21 1009.03 1009.76 1010.17 1011.84 1014.01 1013.74 1012.10 1012.57 1012.66 1012.70 1012.80 1013.64 1014.44 1014.46 1014.81 1015.08 1015.18 1016.63 1017.27 1017.66 1017.56 1017.29 1017.15 1018.42 1019.24 1019.29 1020.28 1022.11 1023.06 1023.22 1022.75 1021.93 1021.47 1017.11 1016.21 1015.34 1015.35 1015.40 1015.68 1016.01 1016.41
1004.88 1005.80 1006.17 1007.40 1008.28 1009.12 1010.07 1012.41 1013.09 1011.87 1012.08 1012.02 1012.30 1013.00 1013.39 1013.48 1014.12 1014.27 1014.60 1015.23 1014.95 1015.06 1016.57 1017.00 1017.62 1016.93 1016.67 1017.05 1017.98 1019.28 1019.36 1020.42 1022.00 1023.24 1022.81 1022.32 1020.20 1016.45 1015.36 1015.36 1015.30 1015.57 1015.77 1016.07 1016.49
1005.44 1005.25 1005.98 1007.24 1007.83 1008.74 1010.56 1011.63 1010.45 1010.77 1011.15 1011.73 1012.42 1013.19 1013.47 1013.18 1013.33 1013.89 1013.93 1013.84 1013.89 1014.15 1014.59 1015.83 1016.25 1016.22 1016.32 1016.61 1017.00 1018.65 1018.89 1018.89 1021.15 1023.56 1022.94 1021.04 1018.73 1016.52 1014.91 1015.12 1015.40 1015.71 1015.85 1016.27 1016.49
1005.95 1005.62 1005.84 1006.32 1007.53 1008.92 1010.28 1010.09 1009.94 1009.75 1010.06 1010.51 1011.03 1011.64 1011.89 1012.67 1013.37 1013.61 1013.81 1012.84 1013.15 1013.18 1013.16 1014.35 1015.77 1016.43 1016.55 1016.52 1016.79 1016.62 1017.38 1019.12 1020.53 1022.18 1022.50 1020.24 1018.81 1016.28 1015.46 1015.44 1015.65 1015.85 1016.07 1016.54 1016.76
1006.00 1006.38 1006.49 1006.20 1007.25 1008.31 1008.60 1009.24 1009.52 1009.33 1009.25 1009.68 1010.12 1010.89 1011.23 1011.83 1012.33 1012.83 1012.65 1012.41 1011.95 1012.72 1013.14 1013.81 1014.55 1017.05 1016.88 1016.41 1016.06 1017.02 1017.15 1017.94 1018.81 1019.79 1020.08 1019.78 1017.33 1015.11 1014.59 1014.84 1015.43 1016.01 1016.35 1016.56 1017.05
1006.58 1007.06 1006.77 1006.23 1007.38 1008.26 1008.73 1008.94 1008.80 1009.11 1009.02 1009.05 1009.17 1009.63 1010.25 1010.84 1011.71 1012.31 1011.95 1011.54 1011.44 1011.91 1012.74 1013.22 1014.48 1016.42 1016.57 1016.48 1016.34 1016.10 1015.88 1016.33 1017.62 1018.76 1019.13 1018.81 1015.83 1014.83 1014.94 1015.24 1015.66 1016.19 1016.49 1016.71 1017.04
1007.20 1007.40 1006.86 1006.63 1007.48 1008.22 1008.54 1008.78 1008.60 1008.70 1008.70 1008.98 1009.09 1009.27 1009.85 1010.35 1011.18 1011.34 1011.54 1011.70 1011.46 1011.64 1011.75 1012.68 1014.16 1016.13 1016.99 1017.13 1016.84 1016.43 1016.35 1016.23 1016.66 1017.40 1017.70 1018.07 1015.15 1015.00 1015.35 1015.75 1015.96 1016.28 1016.54 1016.68 1016.95
1007.99 1007.72 1007.66 1007.93 1007.86 1007.67 1008.07 1008.27 1008.34 1008.31 1008.33 1008.58 1008.95 1009.29 1009.88 1010.24 1010.28 1011.11 1011.65 1011.95 1011.84 1011.89 1011.70 1012.16 1013.41 1013.97 1014.20 1014.79 1015.58 1016.57 1016.00 1015.74 1015.96 1016.90 1016.00 1015.71 1014.42 1015.39 1015.70 1015.78 1016.06 1016.26 1016.58 1016.94 1017.35
1008.50 1008.36 1008.26 1007.92 1007.95 1007.98 1007.80 1007.80 1007.89 1008.03 1008.42 1008.44 1008.84 1009.02 1009.45 1010.18 1010.67 1011.23 1011.58 1012.21 1012.28 1012.28 1012.45 1012.30 1013.35 1014.10 1014.55 1014.64 1015.05 1015.11 1015.12 1015.34 1015.46 1014.45 1015.12 1011.89 1014.14 1014.44 1015.06 1015.49 1015.59 1015.93 1016.53 1017.08 1017.60
1008.57 1008.92 1008.66 1008.05 1007.77 1007.96 1007.82 1007.87 1007.61 1007.94 1008.03 1008.51 1008.86 1008.90 1009.62 1010.14 1010.04 1010.49 1010.91 1011.44 1011.60 1012.49 1012.59 1013.09 1013.92 1014.22 1014.89 1014.88 1015.24 1015.47 1015.08 1014.57 1014.19 1013.92 1013.45 1013.25 1012.56 1013.25 1014.02 1014.98 1015.67 1016.00 1016.49 1017.18 1017.91
1008.85 1008.75 1008.70 1008.86 1008.31 1008.26 1007.84 1007.81 1008.11 1008.16 1008.60 1008.59 1008.97 1009.23 1009.73 1010.15 1010.26 1010.46 1010.54 1010.92 1011.43 1012.00 1012.88 1013.56 1014.13 1014.82 1014.88 1015.00 1015.68 1015.56 1012.94 1014.16 1013.89 1013.46 1013.19 1013.13 1011.00 1013.20 1014.18 1014.63 1015.04 1015.87 1016.56 1017.23 1017.84
Wind_Speed
13 13 12 11 11 11 10 8 7 5 4 5 4 4 6 5 4 4 6 7 4 5 5 3 3 2 3 3 3 3 6 2 4 5 3 4 4 1 0 5 2 5 4 2 6
13 12 13 12 10 10 11 8 8 6 3 2 3 2 7 8 2 5 6 5 5 7 4 5 4 3 4 2 3 5 4 9 5 5 2 5 4 8 4 2 3 2 0 4 11
14 13 12 13 10 10 9 8 6 6 5 3 2 2 3 4 3 6 3 5 7 7 2 4 4 1 3 2 2 2 5 5 4 3 5 5 2 2 6 3 7 8 5 7 10
14 14 12 11 11 12 11 9 8 7 5 3 2 2 2 2 7 2 1 6 7 7 5 5 3 3 3 6 2 5 2 5 4 3 4 6 6 3 4 4 2 5 6 9 14
14 14 14 12 13 11 10 10 9 7 5 4 1 2 1 2 7 1 4 6 4 5 6 4 4 4 5 5 4 3 4 4 2 5 4 4 2 3 7 7 3 4 7 13 13
15 14 14 12 12 11 11 10 9 7 5 3 2 1 2 4 0 4 5 3 4 4 4 5 6 4 5 3 2 4 3 4 3 3 2 3 1 0 3 3 3 5 7 8 12
16 16 14 13 12 11 10 9 7 7 5 3 2 2 2 9 2 3 5 2 4 4 5 3 5 2 5 5 1 4 4 3 3 2 2 1 4 8 4 2 3 6 6 7 10
16 16 15 13 13 13 11 10 7 4 4 2 2 1 6 1 1 3 2 2 3 2 3 5 5 6 4 3 7 5 5 4 1 4 2 3 8 5 2 3 9 7 6 7 7
15 16 16 15 14 13 11 10 9 4 2 3 1 3 6 1 3 2 2 6 4 3 5 4 7 5 4 6 4 7 4 2 4 2 2 3 6 5 3 3 5 6 8 7 8
16 16 18 18 16 14 13 11 8 7 2 2 2 2 1 4 3 4 2 4 4 5 5 6 6 5 5 3 6 4 3 1 5 2 2 2 10 8 7 4 8 7 7 8 8
18 17 18 19 18 17 15 7 5 4 2 6 6 3 2 1 2 1 2 5 4 8 5 2 5 7 7 5 3 6 3 5 2 2 2 5 7 14 6 5 10 9 9 10 11
21 21 19 18 20 19 4 4 7 7 5 7 2 3 2 3 4 2 5 6 5 5 5 6 5 8 7 8 6 4 4 2 1 2 3 4 10 13 8 8 9 9 9 11 6
23 23 21 20 18 12 2 4 2 3 5 4 5 5 4 5 4 9 8 5 5 7 6 8 3 9 8 6 8 4 7 4 4 1 2 4 8 7 5 4 5 8 10 6 7
21 23 24 23 12 10 7 4 3 2 4 5 6 8 5 6 4 3 5 6 3 8 7 4 3 7 5 5 6 5 7 5 5 3 4 2 8 6 6 9 7 11 6 7 7
23 26 27 24 13 11 8 6 3 4 2 5 5 2 6 9 6 4 3 4 10 8 9 7 9 8 5 7 8 6 7 7 3 4 2 3 1 8 2 6 11 4 4 1 5
24 27 31 9 5 9 9 8 4 6 12 5 5 9 8 5 3 4 4 5 6 5 2 3 1 5 7 4 4 11 8 7 5 3 3 7 7 5 6 8 3 3 0 4 5
21 30 27 12 10 13 12 5 5 6 2 7 7 6 9 8 6 6 8 7 9 7 5 1 2 3 5 9 5 3 7 3 2 1 7 3 3 8 7 9 5 5 6 5 4
15 26 19 8 16 16 6 8 6 5 8 3 5 10 8 6 3 7 13 10 7 5 5 9 5 9 5 8 11 7 8 8 9 5 3 2 10 9 7 4 4 3 4 5 2
4 11 11 11 18 14 14 10 12 8 10 9 6 7 6 5 7 5 10 15 15 11 9 7 5 0 2 5 11 6 7 4 9 3 4 6 8 10 8 7 3 4 2 5 2
1 3 2 24 21 17 15 16 6 6 7 6 8 6 11 10 7 8 10 7 7 10 1 8 4 1 3 4 1 8 10 5 2 5 4 6 6 10 1 6 6 5 2 2 1
3 4 3 18 12 11 12 8 5 5 6 6 7 7 7 10 8 10 11 4 10 9 5 6 5 1 4 8 11 4 4 3 6 6 7 2 9 8 10 7 8 5 5 5 4
1 5 2 9 8 6 11 8 6 6 2 4 4 5 7 11 10 9 14 9 8 13 16 7 6 5 9 2 2 3 8 8 7 7 2 3 11 3 5 6 8 7 6 4 4
3 1 2 3 6 8 4 7 6 6 6 5 4 2 2 8 6 8 7 2 6 13 16 10 3 4 6 4 2 4 3 4 5 3 8 7 14 1 4 6 6 7 5 2 3
1 3 2 2 2 6 7 7 8 1 5 5 5 4 4 4 3 6 4 1 3 3 6 10 4 13 16 5 9 7 7 7 9 4 11 13 13 1 5 7 6 6 5 3 3
1 1 1 5 4 4 4 9 10 7 3 5 3 8 7 4 8 6 4 4 2 4 3 7 9 6 3 6 4 6 10 15 16 22 12 28 17 10 12 13 14 8 6 6 5
2 2 0 2 7 9 5 6 7 7 6 5 4 14 10 7 10 11 9 6 5 2 5 2 2 3 3 6 5 2 6 14 23 21 21 12 20 8 10 3 5 8 7 5 5
1 1 1 3 2 4 5 6 7 8 2 3 10 3 8 5 4 3 3 7 7 8 4 7 6 4 8 8 5 7 25 12 6 6 10 17 18 6 5 10 11 10 7 8 8
Wind_Direction
192 189 187 196 189 197 203 186 202 221 209 209 208 273 275 275 238 185 217 203 170 173 118 133 80 117 70 88 80 146 69 135 203 158 205 149 157 311 221 125 214 197 167 295 138
183 200 178 195 191 195 197 191 191 189 213 222 234 221 288 318 245 259 246 196 153 145 116 146 153 145 73 92 32 85 107 199 191 190 207 188 191 170 143 155 192 229 242 91 147
187 193 185 195 191 197 191 183 189 178 186 175 243 271 312 342 293 245 321 182 144 135 124 124 127 83 102 109 108 146 163 189 188 206 141 175 199 201 139 221 214 194 187 150 166
188 189 185 193 193 198 189 185 179 178 175 183 219 278 308 172 206 308 151 133 142 122 119 113 115 103 103 133 137 117 153 170 143 140 131 160 128 193 226 223 145 208 167 162 178
183 188 183 187 195 192 186 183 174 184 173 172 237 333 115 155 248 153 122 119 91 116 145 135 129 131 147 129 111 124 154 155 88 102 93 116 212 224 242 252 253 81 157 181 186
185 184 175 191 188 179 174 190 171 173 176 180 185 147 128 210 321 126 129 118 143 120 143 132 174 172 104 132 129 148 98 118 89 103 100 143 224 218 268 313 252 179 194 200 203
184 177 177 188 177 170 166 172 167 169 169 170 221 139 102 232 46 137 149 176 174 142 138 166 133 88 132 118 115 107 106 67 53 17 40 139 299 229 242 15 298 236 230 219 220
182 176 174 186 168 160 160 153 152 173 156 173 194 142 231 347 173 134 124 83 113 93 111 137 110 105 73 122 35 80 52 111 275 133 335 106 262 276 24 194 248 265 258 250 235
177 176 175 177 166 153 157 149 143 156 163 130 108 139 258 105 153 201 136 143 113 56 49 81 71 93 70 100 54 11 171 154 319 204 123 147 255 271 91 54 302 279 260 249 257
169 173 176 170 156 152 148 142 142 115 66 100 77 71 269 210 180 136 54 119 115 103 48 47 58 87 47 95 183 178 161 175 223 170 93 182 258 269 272 288 272 276 272 265 255
165 169 169 158 150 157 139 124 86 29 357 180 196 184 102 44 67 77 154 94 81 61 138 354 105 173 176 187 120 136 137 168 216 25 193 236 262 275 266 264 273 253 256 249 246
171 168 163 157 155 164 119 198 196 171 161 209 271 285 196 190 104 253 130 125 123 155 114 50 203 201 144 142 128 134 135 218 59 45 195 340 285 272 254 238 223 248 246 243 257
171 165 160 156 154 153 174 247 200 160 109 195 187 171 188 130 192 201 145 129 123 133 174 156 215 153 136 148 141 151 157 174 183 181 69 339 288 281 305 264 267 247 250 261 258
169 165 158 147 152 161 201 237 297 232 83 219 202 242 144 145 250 166 183 133 83 161 137 203 94 137 120 162 127 182 199 152 140 106 233 1 280 303 279 293 276 272 272 271 276
175 168 162 156 133 173 193 169 302 41 165 217 176 34 148 153 145 233 198 56 154 159 130 229 158 149 158 192 159 210 124 141 118 110 55 329 347 263 288 279 264 274 294 55 331
175 171 163 151 120 164 146 115 51 75 232 211 140 169 134 140 108 122 149 63 132 105 63 170 209 153 172 74 134 151 84 53 57 96 286 204 174 253 199 212 258 154 92 329 331
185 178 168 161 162 152 136 84 103 193 203 189 183 169 156 153 127 148 170 164 150 117 166 102 203 174 130 86 33 73 106 41 7 2 229 332 170 243 250 231 226 250 299 307 316
186 171 169 159 142 155 126 120 189 202 207 115 123 118 184 133 179 160 146 188 247 126 133 158 232 168 181 166 165 194 160 160 189 193 229 59 234 256 243 269 256 269 285 300 288
114 185 164 153 150 156 146 191 210 177 161 146 78 147 188 208 136 142 190 199 193 184 160 152 242 89 139 153 145 203 214 156 103 20 61 219 284 288 259 266 251 233 226 290 294
134 90 2 158 157 159 168 206 213 179 136 163 154 175 170 177 152 192 170 193 201 181 199 201 122 358 169 113 33 165 155 87 2 137 230 262 268 231 160 201 204 204 176 225 291
42 96 312 163 143 168 192 202 187 217 157 155 164 150 173 169 174 196 203 216 186 179 150 146 110 351 125 216 166 150 178 92 127 158 173 232 255 215 207 194 188 184 164 159 168
110 139 270 156 145 175 185 181 159 162 197 144 120 115 161 157 168 198 208 216 177 152 191 179 124 152 201 291 345 354 185 158 166 216 237 149 258 173 201 186 160 170 172 145 137
53 119 338 91 139 172 149 173 183 155 171 164 122 120 178 160 161 191 179 208 170 173 170 174 204 81 356 342 357 208 199 136 102 80 196 145 261 339 116 148 187 173 182 176 127
341 139 53 81 246 143 150 164 160 171 154 135 122 118 133 142 64 163 145 184 166 172 132 145 133 203 209 183 138 189 193 188 191 164 221 227 239 211 209 204 221 217 218 196 147
27 32 357 151 178 155 125 159 172 152 149 164 193 208 187 170 183 186 138 136 48 158 76 142 202 192 167 133 128 187 184 196 203 220 188 243 232 196 202 200 211 198 191 160 154
131 204 13 55 156 149 168 165 162 146 158 151 157 179 170 186 206 197 156 181 174 181 141 60 174 119 276 153 146 184 224 209 215 226 239 262 259 165 207 104 146 201 180 173 146
154 3 72 355 115 134 165 154 174 125 53 140 159 135 173 159 141 158 151 136 151 143 149 141 134 139 231 164 106 262 222 200 198 200 207 228 243 162 179 193 196 200 177 171 165